Content
SEND FEEDBACK

Daily
Averages
Monthly
Summary
United States of America

ST. LOUIS, MISSOURI


Home > North America > United States > Missouri
Elevation: 535 feet     Latitude: 38 45N     Longitude: 090 22W

WEATHER
 
SELECT A DAY
Number of Records: 196,477;   Date Range: 1/1/95 - 8/28/14
 
SHARE

PRINT THIS DATA

[ ← Previous Day ]
WEATHER ALMANAC - MAY 7, 2013
[ Next Day → ]
[ °C ]   °F
Weather ElementAverageHighLow
Temperature66.3 °F77 °F (4:54 pm)55.9 °F (5:54 am)
Dewpoint54.1 °F57 °F (10:54 am)50 °F (4:54 pm)
Humidity68 %93 % (2:54 am)39 % (4:54 pm)
Barometer29.99 in30.02 in (8:54 am)29.96 in (4:54 pm)
Wind Speed2.8 mph9.2 mph (11:54 am)
Weather ElementAverage
Visibility10 mi
Wind DirectionENE (59.1 °)

Weather ElementTotal
Precipitation---
Cooling Degree Days1.5 (Base 65)
Growing Degree Days16.5 (Base 50)
Averaged from 23 records on May 7, 2013
WEATHER CONDITIONS BREAKOUT
WIND DIRECTION BREAKOUT
WEATHER BY HOUR - MAY 7, 2013
[ °C ]   °F
Local TimeTemperatureDewpointHumidityBarometerVisibilityWind DirectionWind SpeedGust SpeedPrecipitationEventsConditions
1:54 AM57.9 °F55.0 °F90 %29.97 in10.0 miWest (260°)3.5 mphOvercast
2:54 AM57.0 °F55.0 °F93 %29.97 in10.0 miCalmOvercast
3:54 AM57.0 °F54.0 °F89 %29.97 in10.0 miCalmOvercast
4:54 AM57.2 °F53.6 °F88 %29.98 in10.0 miCalmOvercast
5:54 AM55.9 °F54.0 °F93 %29.99 in10.0 miCalmOvercast
6:54 AM57.0 °F55.0 °F93 %30.00 in10.0 miCalmMostly Cloudy
7:54 AM61.0 °F55.0 °F81 %30.01 in10.0 miCalmMostly Cloudy
8:54 AM66.0 °F55.9 °F70 %30.02 in10.0 miEast (80°)3.5 mphPartly Cloudy
9:54 AM70.0 °F54.0 °F57 %30.02 in10.0 miCalmClear
10:54 AM73.0 °F57.0 °F57 %30.02 in10.0 miENE (60°)5.8 mphScattered Clouds
11:54 AM73.9 °F55.0 °F52 %30.02 in10.0 miEast (80°)9.2 mphMostly Cloudy
12:54 PM75.9 °F55.0 °F48 %30.01 in10.0 miENE (60°)6.9 mphMostly Cloudy
1:54 PM75.9 °F54.0 °F46 %30.00 in10.0 miNE (40°)8.1 mphMostly Cloudy
2:54 PM75.0 °F53.1 °F46 %29.99 in10.0 miNNE (30°)5.8 mphMostly Cloudy
3:54 PM75.9 °F54.0 °F46 %29.97 in10.0 miSSE (150°)3.5 mphMostly Cloudy
4:54 PM77.0 °F50.0 °F39 %29.96 in10.0 miCalmScattered Clouds
5:54 PM73.9 °F52.0 °F46 %29.96 in10.0 miCalmScattered Clouds
6:54 PM75.0 °F50.0 °F41 %29.96 in10.0 miNE (40°)5.8 mphScattered Clouds
7:54 PM71.1 °F53.1 °F53 %29.97 in10.0 miSE (140°)3.5 mphScattered Clouds
8:54 PM64.9 °F55.0 °F70 %29.98 in10.0 miSouth (170°)4.6 mphClear
9:54 PM60.1 °F55.0 °F83 %29.99 in10.0 miCalmClear
10:54 PM57.9 °F55.0 °F90 %29.99 in10.0 miCalmClear
11:54 PM55.9 °F54.0 °F93 %29.99 in10.0 miWSW (250°)3.5 mphClear
Hourly data recorded from KSUS, located miles away from St. Louis, Missouri







STORIES FROM OUR PARTNERS